Regional Weather Roundup
Issued by NWS

Home | Current Version | Previous Version | Text Only | Print | Product List | Glossary On
Versions: 1 2 3 4 5 6 7 8 9 10 11 12 13 14 15 16 17 18 19 20 21 22 23 24 25 26 27 28 29 30 31 32 33 34 35 36 37 38 39 40 41 42 43 44 45 46 47 48 49 50
000
ASUS43 KLOT 170110
RWRIL

ILLINOIS REGIONAL WEATHER ROUNDUP
NATIONAL WEATHER SERVICE CHICAGO/ROMEOVILLE IL
800 PM CDT TUE SEP 16 2014

NOTE: "FAIR" INDICATES FEW OR NO CLOUDS BELOW 12,000 FEET WITH NO
SIGNIFICANT WEATHER AND/OR OBSTRUCTIONS TO VISIBILITY.

* THESE STATIONS ARE NOT UNDER NWS QUALITY CONTROL. THEY ALSO MAY NOT
  REPORT WEATHER SUCH AS PRECIPITATION OR FOG.

ILZ001-002-007-009-015-016-024-170200-
NORTHWEST ILLINOIS

CITY           SKY/WX    TMP DP  RH WIND       PRES   REMARKS
MOLINE         CLEAR     54  48  80 CALM      30.09S
STERLING*      CLEAR     52  45  76 SW3       30.10S
SAVANNA*       CLEAR     56  47  72 E3        30.09S
$$

ILZ003-004-008-010-011-017-018-170200-
NORTH CENTRAL ILLINOIS

CITY           SKY/WX    TMP DP  RH WIND       PRES   REMARKS
ROCKFORD       CLEAR     55  47  74 CALM      30.12R
FREEPORT*      CLEAR     52  48  86 SW3       30.12S
ROCHELLE*      CLEAR     52  46  80 CALM      30.11R
DE KALB*       CLEAR     51  45  78 CALM      30.11R
PERU*          CLEAR     58  47  64 SW3       30.10S
$$

ILZ005-006-012>014-019>023-170200-
NORTHEAST ILLINOIS

CITY           SKY/WX    TMP DP  RH WIND       PRES   REMARKS
CHICAGO-OHARE  CLEAR     61  40  45 VRB6      30.10R
CHICAGO-MIDWAY CLEAR     62  50  64 E6        30.09S
AURORA         CLEAR     51  45  79 CALM      30.10S
LANSING*       CLEAR     54  47  78 CALM      30.10R
JOLIET*        CLEAR     52  48  86 CALM      30.11R
WAUKEGAN       CLEAR     50  45  83 CALM      30.09S
DUPAGE AIRPORT CLEAR     56  43  61 CALM      30.09S
KANKAKEE*      CLEAR     53  49  84 CALM      30.11R
WHEELING       CLEAR     56  47  71 CALM      30.11S
MORRIS*        CLEAR     55  47  74 CALM      30.10R
ROMEOVILLE*    CLEAR     59  42  54 CALM      30.10R
NORTHERLY ISL    N/A     59  50  72 NE6         N/A
$$

LMZ740>746-170200-
SOUTHERN LAKE MICHIGAN

STATION/POSITION SKY/WX   TEMP    WIND        PRES    VSBY  WAVE
                          AIR SEA DIR/SP/G                  HT/PER
                          (F)     (DEG/KT/KT) (MB)    (MI)  (FT/S)
SOUTHERN BUOY              58 64  150/  4/  6 1019.6F         1
WAUKEGAN HARBOR            59     160/  8/  8   N/A
HARRISON CRIB              60      80/  8/  9   N/A
BURNHAM HARBOR             59      60/  5/  6   N/A
CALUMET HARBOR             61      70/  5/  7 1017.9S
MICHIGAN CITY              58      70/  6/  8   N/A
MICHIGAN CITY 6N           61 65   70/  6/  8   N/A           1/ 5
ST. JOSEPH                 60 66   30/  6/  8   N/A           1/ 4
$$

ILZ025>027-034>036-040-047-049-050-058-095>099-170200-
WEST-CENTRAL ILLINOIS

CITY           SKY/WX    TMP DP  RH WIND       PRES   REMARKS
QUINCY         CLEAR     61  49  64 E3        30.08S
GALESBURG*     CLEAR     52  47  82 E3        30.09S
MACOMB*        CLEAR     55  49  80 CALM      30.10S
JACKSONVILLE*  CLEAR     59  53  78 CALM      30.10S
PITTSFIELD*    CLEAR     58  52  79 S5        30.10S
$$

ILZ028>032-037-038-041>044-048-051>054-059>061-170200-
CENTRAL ILLINOIS

CITY           SKY/WX    TMP DP  RH WIND       PRES   REMARKS
PONTIAC        CLEAR     54  52  94 CALM      30.10R
DECATUR        CLEAR     58  50  75 CALM      30.10S
PEORIA         CLEAR     55  49  80 CALM      30.10S
LACON*         CLEAR     51  46  83 CALM      30.10R
LINCOLN*       CLEAR     58  50  73 CALM      30.07S
SPRINGFIELD    CLEAR     55  51  86 CALM      30.10S
TAYLORVILLE    CLEAR     54  52  94 CALM      30.10S
$$

ILZ033-039-045-046-055>057-062-063-170200-
EAST-CENTRAL ILLINOIS

CITY           SKY/WX    TMP DP  RH WIND       PRES   REMARKS
CHAMPAIGN      CLEAR     54  49  83 CALM      30.10S
DANVILLE*      CLEAR     53  50  90 CALM      30.07S
RANTOUL*       CLEAR     59  47  65 CALM      30.11R
MATTOON        CLEAR     57  52  83 SW5       30.09S
PARIS*         CLEAR     51  50  97 CALM      30.10S
$$

ILZ079-100>102-170200-
SOUTHWEST ILLINOIS

CITY           SKY/WX    TMP DP  RH WIND       PRES   REMARKS
ALTON          CLEAR     55  52  88 NW3       30.11S
BELLEVILLE     MOCLDY    57  55  94 CALM      30.10S
CAHOKIA*       CLEAR     56  52  86 CALM      30.10S
SPARTA*        CLEAR     53  50  90 CALM      30.11S
$$

ILZ064>066-069>071-074>076-080>082-084>086-088>090-092>094-170200-
SOUTH-CENTRAL ILLINOIS

CITY           SKY/WX    TMP DP  RH WIND       PRES   REMARKS
CARBONDALE     CLEAR     55  51  86 E3        30.11S
CAIRO*         CLEAR     60  54  79 N5        30.10S
EFFINGHAM*     CLEAR     54  51  89 CALM      30.10S
MARION         MOCLDY    57  54  88 CALM      30.12S
MT. VERNON     MOCLDY    57  52  82 CALM      30.12S
CENTRALIA*     MOCLDY    58  53  80 SE5       30.11S
SALEM*         CLOUDY    59  57  94 CALM      30.11S
METROPOLIS*    CLEAR     57  53  84 CALM      30.10R
$$

ILZ067-068-072-073-078-083-087-091-170200-
SOUTHEAST ILLINOIS

CITY           SKY/WX    TMP DP  RH WIND       PRES   REMARKS
LAWRENCEVILLE  CLEAR     55  51  86 CALM      30.11S
FLORA*         CLEAR     53  51  93 CALM      30.11S
FAIRFIELD*     CLEAR    N/A N/A N/A CALM      30.11S
HARRISBURG*    MOCLDY    60  50  71 NE3       30.12F
ROBINSON*      CLEAR     53  52  97 CALM      30.11S
CARMI*         MOCLDY    57  54  89 CALM      30.10S
$$

ABBREVIATIONS USED IN REMARKS
   TC - TEMPERATURE IN CELSIUS
  WCI - WIND CHILL INDEX
   HX - HEAT INDEX
  VSB - VISIBILITY
$$




USA.gov is the U.S. government's official web portal to all federal, state and local government web resources and services.